Flag for Germany Weather past 2 weeks in Springe, Lower Saxony, Germany

Now
34 °F

Chilly.


Feels Like: 25 °F
Forecast: 34 / 45 °F
Wind: 13 mph from Southwest

Location: Wunstorf Airport

Current Time: Mar 4, 2015 at 5:24:32 AM

Latest Report: Mar 4, 2015 at 4:20 AM


Visibility: 6 mi

Pressure: 30.04 "Hg

Humidity: 87%

Dew point: 30 °F

Location of SpringeLocation

Historic Weather in Springe — Graph

°F

Springe temperature yesterday

Maximum temperature yesterday: 45 °F (at 12:20 PM)
Minimum temperature yesterday: 36 °F (at 12:20 AM)
Average temperature yesterday: 39 °F

Past Weeks' High & Low Weather Summary

 TemperatureHumidityPressure
High50 °F (Mar 1, 1:20 PM)100% (Feb 17, 3:20 AM)30.74 "Hg (Feb 17, 3:20 AM)
Low27 °F (Feb 17, 6:20 AM)43% (Feb 28, 4:20 PM)29.30 "Hg (Feb 21, 7:20 AM)
Average39 °F80%29.90 "Hg
* Reported Feb 17 3:20 AM — Mar 4 3:20 AM, Springe, Weather by CustomWeather, © 2015

Note: Actual official high and low records may vary slightly from our data, if they occured in-between our weather recording intervals... More about our weather records

Advertising

Springe weather history for previous 24 hours

 ConditionsComfort  
Time TempWeatherWind HumidityBarometerVisibility
3:20 AM
Wed, Mar 4
34 °FChilly.10 mph93%30.04 "Hg6 mi
2:20 AM37 °FChilly.16 mph87%30.01 "Hg4 mi
1:20 AM36 °FChilly.12 mph87%30.01 "Hg5 mi
12:20 AM36 °FChilly.10 mph87%30.01 "Hg5 mi
11:20 PM
Tue, Mar 3
36 °FChilly.9 mph93%29.98 "Hg5 mi
10:20 PM37 °FChilly.12 mph87%29.98 "Hg5 mi
9:20 PM39 °FChilly.14 mph81%29.95 "Hg5 mi
8:20 PM39 °FChilly.10 mph87%29.92 "Hg5 mi
7:20 PM39 °FThunderstorms. Partly cloudy.12 mph87%29.89 "HgN/A
7:02 PM39 °FThunderstorms. Passing clouds.18 mph87%29.89 "Hg5 mi
6:20 PM41 °FLight rain. Partly cloudy.12 mph87%29.89 "HgN/A
5:20 PM41 °FRain. Partly sunny.15 mph87%29.89 "HgN/A
4:20 PM41 °FLight rain. Partly sunny.15 mph81%29.89 "HgN/A
3:20 PM43 °FLight rain. Partly sunny.10 mph76%29.92 "HgN/A
2:20 PM43 °FLight rain. Partly sunny.17 mph71%29.95 "Hg6 mi
1:20 PM45 °FPartly sunny.12 mph66%29.98 "HgN/A
12:20 PM45 °FScattered clouds.17 mph61%29.98 "HgN/A
11:20 AM41 °FScattered clouds.18 mph70%29.98 "HgN/A
10:20 AM41 °FScattered clouds.18 mph76%30.01 "HgN/A
9:20 AM37 °FScattered clouds.16 mph81%29.98 "HgN/A
8:20 AM37 °FScattered clouds.18 mph81%29.98 "HgN/A
7:20 AM36 °FScattered clouds.15 mph81%29.95 "HgN/A
6:20 AM36 °FPassing clouds.16 mph81%29.95 "HgN/A
5:20 AM36 °FPassing clouds.16 mph75%29.95 "HgN/A
Weather by CustomWeather, © 2015

See weather overviewHow to use our weather pages